Temp
68 65 61 59 49 48 47 49 59 59 62 65 68 68 67 62 64 57 68 71 72 72 75 76 77 77 77 77 76 76 76 76 76 76 76 76 75 75 75 75 74 74 74 74 73 73 73 73 73
64 67 58 52 42 42 44 52 56 63 67 66 67 64 64 60 66 66 66 72 73 73 75 75 77 77 77 76 76 76 76 76 76 75 75 75 75 74 74 74 73 73 73 73 72 72 72 72 72
66 67 52 46 41 41 43 54 57 66 72 68 66 66 65 62 66 68 71 73 73 73 74 75 76 77 77 76 76 76 76 75 75 75 75 74 74 74 73 73 72 72 72 72 72 72 71 71 72
60 56 52 41 37 46 50 55 60 62 69 69 66 60 66 71 68 69 72 73 72 72 74 75 76 77 76 75 75 75 75 75 74 74 74 74 73 73 72 72 71 71 72 72 72 71 71 71 71
57 51 40 36 40 47 53 58 59 61 63 65 66 58 60 67 72 72 71 73 71 71 73 74 76 76 75 75 75 75 75 74 74 74 74 73 73 72 72 71 71 71 71 72 72 72 72 72 72
52 48 35 33 39 48 53 57 58 61 63 68 62 60 61 69 69 71 73 72 72 71 72 74 74 74 75 75 75 75 74 74 74 73 73 73 72 72 71 71 71 72 72 72 72 72 72 72 72
46 42 37 37 39 44 52 57 56 60 61 60 67 59 61 66 70 72 72 71 71 72 71 71 72 73 73 73 73 74 74 73 73 72 72 71 70 71 71 71 71 72 72 72 72 73 73 72 72
53 46 37 37 39 43 53 57 62 60 61 67 70 58 60 66 70 71 71 70 70 70 70 71 70 68 65 66 71 71 71 71 71 70 69 68 68 68 69 68 70 70 71 71 72 73 72 72 71
56 40 40 42 43 47 55 53 61 66 61 66 64 64 69 71 70 69 67 67 69 69 68 69 65 64 62 63 67 68 69 69 69 67 66 63 58 59 61 65 67 69 70 71 72 72 70 68 66
46 42 41 49 50 49 54 54 57 57 58 61 64 65 70 68 68 65 65 65 66 64 66 68 63 62 62 68 60 59 63 60 59 60 59 58 57 58 61 61 65 67 67 68 69 69 67 63 57
46 40 48 52 54 55 54 53 58 55 54 58 59 62 65 65 66 65 66 66 66 66 66 66 63 61 60 60 57 56 56 56 56 57 57 57 58 56 55 54 55 55 59 56 58 57 57 56 57
43 50 51 53 54 52 51 55 54 56 57 61 64 61 62 65 65 66 66 66 66 65 66 66 63 61 59 58 56 56 56 55 55 56 58 56 54 54 53 53 54 54 53 54 53 54 55 56 57
46 47 52 53 53 53 54 51 52 55 61 63 64 61 59 60 63 67 68 67 66 65 66 64 63 60 62 59 57 56 55 56 56 56 57 56 55 54 53 53 53 53 54 53 53 53 54 54 56
47 48 49 51 51 52 50 51 53 56 63 65 62 59 60 61 60 65 67 65 66 65 65 64 64 61 62 59 57 56 55 56 56 56 57 58 55 54 54 54 54 53 53 53 53 52 52 52 53
49 43 46 48 50 49 53 48 47 56 62 62 62 59 60 61 62 62 67 66 66 66 67 65 64 63 61 59 57 55 56 58 56 56 57 58 57 55 54 54 53 53 54 55 54 53 53 53 54
43 41 35 47 49 51 50 41 51 54 56 59 58 59 59 62 62 66 67 67 67 68 67 68 69 62 60 58 57 57 56 55 55 56 56 58 58 56 54 54 54 55 54 53 52 51 52 51 50
38 35 35 40 50 49 47 40 50 54 54 55 56 57 58 61 64 67 66 67 67 68 68 65 65 61 60 57 56 56 56 55 55 55 56 58 59 58 56 54 54 55 53 52 52 51 50 49 49
33 36 37 37 46 46 44 43 51 55 54 53 53 53 57 57 61 61 61 65 65 66 68 66 65 61 60 58 55 54 54 54 54 54 56 58 58 58 55 55 55 54 52 51 51 50 50 49 47
39 37 35 41 48 43 42 43 48 53 51 51 50 51 55 57 61 61 61 63 63 64 64 63 62 61 60 58 55 53 52 52 53 55 58 58 58 57 55 53 53 53 52 50 51 49 49 49 47
41 36 36 42 47 45 42 42 49 51 51 52 52 51 54 54 57 59 60 63 63 61 62 61 61 58 58 59 55 55 55 53 54 55 56 57 57 57 56 54 53 52 51 50 49 48 48 48 47
39 36 37 38 43 44 41 37 41 49 51 53 54 54 54 55 56 58 60 62 63 59 60 60 59 59 57 57 56 55 55 54 53 54 54 56 57 56 55 54 52 51 50 49 48 48 47 46 47
34 43 43 41 36 27 41 28 36 45 46 49 51 50 52 55 57 59 60 59 58 58 60 60 60 59 58 58 58 57 57 54 53 54 55 55 57 56 56 55 54 52 49 49 50 50 47 46 45
40 44 41 40 34 30 32 26 34 40 42 45 48 50 52 53 57 58 58 57 56 56 56 58 59 59 59 59 59 57 56 54 55 54 53 53 54 55 55 53 52 51 50 49 50 48 47 46 45
46 41 40 37 33 22 31 29 31 36 43 46 47 50 53 54 54 58 57 57 56 56 56 57 57 58 58 58 57 57 55 53 53 52 52 52 52 52 53 53 51 51 50 49 48 47 47 47 46
42 33 23 21 22 23 34 28 35 44 47 47 49 50 52 54 55 57 56 55 56 55 56 56 56 56 57 57 56 56 55 55 54 54 53 52 51 50 51 51 50 49 49 49 48 48 47 46 46
37 35 24 18 21 23 33 27 35 46 47 47 50 51 52 54 58 56 57 57 57 57 57 57 56 55 56 55 55 55 55 54 54 53 52 50 50 49 50 49 49 49 49 48 48 47 47 46 44
37 32 39 31 25 20 26 35 44 45 45 47 47 49 50 53 55 54 53 53 55 56 57 57 57 56 56 56 54 53 53 53 53 52 52 49 47 50 48 49 48 48 48 47 47 45 45 45 44
40 41 30 27 22 23 24 27 29 37 42 45 44 47 49 52 54 53 52 53 54 54 55 56 56 55 55 54 53 53 53 54 52 52 49 49 48 48 47 48 47 46 46 46 44 43 44 43 42
36 34 35 34 30 24 22 26 38 39 42 43 43 49 51 51 52 52 52 53 53 54 55 55 54 54 54 54 54 53 52 52 51 50 48 48 48 47 47 47 46 45 44 44 43 43 43 42 41
41 39 37 29 29 29 27 27 43 42 43 44 44 49 50 52 51 51 51 52 52 53 53 54 53 52 52 52 52 51 51 50 49 48 47 47 46 46 46 45 45 44 44 43 43 42 41 41 39
MSLP
1015.10 1015.02 1015.07 1015.26 1016.08 1015.19 1013.97 1012.44 1010.97 1010.03 1009.27 1007.86 1007.37 1007.59 1008.18 1008.94 1009.67 1011.08 1010.65 1011.07 1011.33 1012.11 1012.69 1013.09 1013.43 1013.81 1014.25 1014.67 1014.99 1015.34 1015.65 1015.96 1016.23 1016.40 1016.58 1016.71 1016.80 1016.85 1016.88 1016.90 1016.91 1016.93 1016.94 1016.91 1016.92 1016.93 1016.90 1016.82 1016.74
1015.13 1014.85 1015.34 1015.72 1015.93 1014.81 1013.31 1011.92 1010.55 1009.35 1008.51 1008.12 1007.94 1008.02 1008.46 1009.13 1009.41 1010.24 1010.82 1011.32 1011.59 1012.08 1012.65 1013.07 1013.33 1013.93 1014.31 1014.71 1015.04 1015.45 1015.83 1016.14 1016.41 1016.62 1016.78 1016.92 1017.03 1017.10 1017.14 1017.21 1017.22 1017.24 1017.22 1017.16 1017.14 1017.17 1017.15 1017.05 1016.93
1015.12 1015.19 1016.01 1016.17 1015.50 1014.14 1012.91 1011.40 1010.44 1009.21 1008.23 1008.27 1008.29 1008.37 1008.68 1009.05 1009.57 1010.04 1010.24 1010.94 1011.55 1012.27 1012.67 1013.12 1013.55 1013.95 1014.31 1014.86 1015.11 1015.47 1015.89 1016.25 1016.57 1016.81 1016.97 1017.11 1017.25 1017.34 1017.39 1017.46 1017.48 1017.48 1017.48 1017.41 1017.37 1017.37 1017.33 1017.25 1017.12
1015.31 1015.77 1016.44 1016.15 1015.54 1014.18 1012.82 1011.27 1010.21 1009.38 1008.01 1007.81 1008.30 1008.85 1009.03 1008.81 1009.24 1009.56 1010.72 1011.00 1011.79 1012.48 1012.91 1013.21 1013.67 1014.06 1014.48 1014.97 1015.26 1015.52 1015.94 1016.34 1016.67 1016.95 1017.16 1017.33 1017.48 1017.58 1017.64 1017.69 1017.72 1017.73 1017.70 1017.63 1017.55 1017.52 1017.47 1017.42 1017.29
1015.54 1016.45 1016.98 1016.68 1015.69 1014.57 1012.90 1011.53 1010.72 1009.91 1008.92 1008.37 1008.19 1009.34 1009.48 1009.39 1009.21 1009.87 1011.07 1011.30 1011.69 1012.72 1013.08 1013.48 1013.69 1014.21 1014.77 1015.07 1015.38 1015.64 1015.98 1016.40 1016.72 1016.99 1017.22 1017.49 1017.66 1017.78 1017.85 1017.89 1017.91 1017.93 1017.90 1017.82 1017.73 1017.67 1017.57 1017.53 1017.47
1016.22 1016.75 1017.42 1016.88 1015.91 1014.65 1013.07 1011.97 1011.28 1010.24 1009.19 1008.89 1008.94 1009.20 1009.96 1009.85 1009.66 1010.41 1011.29 1011.64 1011.94 1012.74 1013.20 1013.61 1014.01 1014.42 1014.93 1015.35 1015.54 1015.79 1016.06 1016.46 1016.73 1017.00 1017.28 1017.55 1017.77 1017.93 1018.03 1018.09 1018.09 1018.04 1018.02 1017.94 1017.91 1017.83 1017.76 1017.74 1017.66
1016.32 1017.03 1017.04 1016.72 1015.94 1014.75 1013.21 1011.97 1011.10 1010.26 1009.35 1008.74 1008.70 1008.83 1010.21 1010.24 1009.98 1010.19 1011.46 1011.86 1012.36 1012.88 1013.37 1013.93 1014.49 1014.79 1015.13 1015.56 1015.78 1016.01 1016.19 1016.50 1016.83 1017.06 1017.39 1017.65 1017.92 1018.08 1018.18 1018.22 1018.21 1018.17 1018.17 1018.16 1018.09 1017.95 1017.87 1017.87 1017.85
1015.99 1016.64 1016.76 1016.40 1015.85 1014.63 1013.17 1012.32 1011.41 1010.49 1009.08 1008.05 1007.96 1008.25 1009.58 1009.78 1010.19 1010.30 1011.56 1012.19 1012.74 1013.37 1013.63 1014.13 1014.73 1015.28 1015.50 1015.79 1016.05 1016.24 1016.49 1016.74 1017.02 1017.23 1017.56 1017.78 1017.99 1018.20 1018.36 1018.45 1018.41 1018.36 1018.37 1018.32 1018.21 1018.09 1018.04 1018.03 1018.04
1015.98 1016.61 1016.41 1016.07 1015.54 1014.32 1013.18 1012.61 1011.29 1010.36 1009.67 1008.77 1008.09 1008.03 1007.69 1008.94 1010.09 1010.87 1011.65 1012.42 1012.97 1013.51 1013.94 1014.25 1015.14 1015.65 1015.87 1016.03 1016.40 1016.57 1016.82 1017.06 1017.30 1017.53 1017.66 1017.96 1018.34 1018.48 1018.63 1018.71 1018.69 1018.59 1018.54 1018.42 1018.21 1018.25 1018.28 1018.33 1018.37
1016.44 1016.41 1016.19 1015.65 1014.91 1014.27 1013.43 1013.07 1012.01 1010.97 1009.88 1008.90 1008.55 1008.19 1008.12 1009.37 1009.70 1010.72 1011.35 1011.98 1012.73 1013.38 1014.00 1014.55 1015.09 1015.65 1016.07 1016.18 1016.76 1016.99 1017.15 1017.41 1017.62 1017.84 1017.96 1018.11 1018.37 1018.65 1018.74 1018.85 1018.84 1018.85 1018.82 1018.72 1018.57 1018.55 1018.55 1018.62 1018.72
1016.56 1016.45 1015.97 1015.20 1014.51 1014.08 1013.51 1013.16 1012.39 1011.52 1010.43 1009.99 1009.63 1008.72 1008.55 1009.58 1009.75 1010.30 1011.09 1011.39 1012.36 1013.34 1014.01 1014.75 1015.25 1015.46 1015.93 1016.42 1016.99 1017.21 1017.55 1017.73 1017.81 1017.94 1018.20 1018.29 1018.39 1018.78 1019.06 1019.07 1019.11 1019.15 1019.14 1019.17 1019.09 1019.03 1019.07 1018.97 1018.95
1016.43 1015.97 1015.59 1014.83 1014.30 1014.03 1013.57 1013.12 1012.45 1011.51 1010.80 1010.29 1009.55 1009.33 1009.16 1010.01 1010.14 1009.79 1010.70 1011.57 1012.38 1013.34 1013.89 1014.60 1015.16 1015.62 1015.93 1016.41 1016.88 1017.24 1017.55 1017.80 1017.91 1018.09 1018.20 1018.32 1018.67 1018.95 1019.28 1019.36 1019.37 1019.40 1019.52 1019.52 1019.54 1019.50 1019.41 1019.25 1019.16
1016.03 1015.73 1015.37 1014.73 1014.22 1013.64 1013.32 1012.80 1012.36 1011.39 1010.55 1010.10 1009.73 1009.77 1009.44 1009.67 1010.42 1010.32 1010.20 1011.25 1012.23 1013.00 1013.72 1014.39 1014.73 1015.47 1015.87 1016.26 1016.70 1017.25 1017.55 1017.65 1017.85 1018.14 1018.14 1018.25 1018.70 1019.06 1019.32 1019.44 1019.50 1019.61 1019.55 1019.68 1019.79 1019.80 1019.71 1019.64 1019.51
1016.19 1015.80 1015.19 1014.61 1013.99 1013.42 1013.04 1012.35 1011.95 1010.85 1010.29 1009.96 1010.00 1010.22 1009.82 1009.34 1007.86 1009.86 1010.10 1010.94 1011.98 1012.62 1013.32 1014.27 1014.61 1015.20 1015.64 1016.04 1016.42 1017.06 1017.41 1017.55 1017.77 1018.07 1018.18 1018.29 1018.54 1018.99 1019.29 1019.49 1019.66 1019.84 1019.79 1019.85 1019.92 1020.02 1020.02 1020.01 1019.88
1016.10 1015.95 1015.08 1014.36 1013.67 1013.22 1012.52 1011.28 1010.85 1010.50 1010.27 1009.86 1010.23 1010.08 1009.75 1009.10 1009.16 1010.13 1010.04 1010.45 1011.35 1012.32 1012.95 1013.91 1014.50 1014.78 1015.50 1015.79 1016.22 1016.76 1017.10 1017.32 1017.76 1017.96 1018.07 1018.24 1018.49 1018.79 1019.19 1019.45 1019.67 1019.91 1019.92 1019.87 1020.01 1020.12 1020.10 1020.06 1020.00
1016.26 1016.08 1015.70 1014.18 1013.54 1012.80 1012.54 1010.42 1011.03 1010.51 1010.22 1009.89 1009.86 1010.07 1010.21 1009.63 1008.94 1010.12 1009.94 1010.01 1010.74 1011.64 1012.62 1013.30 1014.10 1014.83 1015.26 1015.66 1016.20 1016.63 1017.04 1017.27 1017.59 1017.84 1018.11 1018.30 1018.51 1018.75 1019.14 1019.36 1019.62 1019.69 1019.87 1020.10 1020.34 1020.46 1020.55 1020.63 1020.53
1017.02 1016.61 1015.85 1014.58 1013.34 1012.97 1012.65 1010.98 1010.13 1010.43 1010.38 1009.96 1009.93 1009.95 1010.05 1009.69 1009.79 1009.71 1010.33 1009.88 1009.99 1010.90 1011.97 1012.97 1013.78 1014.50 1015.27 1015.75 1016.12 1016.72 1017.21 1017.55 1017.78 1017.94 1018.18 1018.39 1018.58 1018.88 1019.13 1019.44 1019.67 1019.84 1019.93 1020.01 1020.34 1020.71 1020.81 1020.90 1020.80
1017.57 1016.92 1015.86 1014.87 1013.55 1013.18 1012.68 1011.58 1010.39 1009.76 1010.20 1010.00 1009.76 1009.82 1009.58 1009.50 1009.38 1009.56 1009.98 1007.49 1009.72 1010.77 1011.68 1012.55 1013.60 1014.40 1015.14 1015.66 1016.23 1016.83 1017.64 1017.92 1017.99 1018.29 1018.30 1018.43 1018.58 1018.90 1019.30 1019.57 1019.70 1019.95 1020.30 1020.45 1020.41 1020.64 1020.97 1021.11 1021.11
1017.03 1016.60 1015.90 1014.62 1013.52 1013.19 1012.57 1011.64 1010.45 1009.61 1010.00 1009.83 1009.58 1009.66 1009.20 1009.02 1008.59 1008.59 1009.16 1008.59 1010.03 1010.73 1011.87 1012.38 1013.33 1014.15 1014.87 1015.60 1016.29 1017.04 1017.79 1018.23 1018.42 1018.50 1018.51 1018.62 1018.71 1018.90 1019.31 1019.75 1020.00 1020.21 1020.54 1020.83 1020.73 1020.97 1021.20 1021.17 1021.13
1016.46 1016.26 1015.26 1014.19 1013.54 1013.35 1012.48 1011.42 1010.17 1009.56 1009.48 1009.25 1009.13 1009.26 1008.82 1008.81 1009.20 1009.36 1009.88 1009.94 1010.63 1011.49 1011.59 1012.26 1013.04 1014.13 1014.76 1015.33 1015.65 1016.31 1017.16 1017.98 1018.20 1018.52 1018.74 1018.70 1018.77 1019.06 1019.44 1019.94 1020.21 1020.52 1020.76 1020.99 1021.22 1021.32 1021.57 1021.76 1021.62
1015.91 1015.77 1015.10 1014.78 1013.97 1013.21 1012.69 1011.41 1010.27 1009.18 1008.84 1008.45 1008.28 1008.36 1008.17 1008.44 1008.86 1009.19 1010.09 1010.87 1010.74 1010.99 1011.55 1012.15 1012.79 1013.74 1014.26 1014.92 1015.48 1016.46 1017.15 1017.98 1018.38 1018.82 1019.06 1019.13 1019.15 1019.37 1019.62 1019.82 1020.10 1020.68 1021.05 1021.27 1021.29 1021.55 1021.90 1022.26 1022.34
1015.44 1014.78 1014.92 1014.88 1014.94 1014.58 1013.37 1012.64 1010.65 1009.11 1008.40 1008.07 1007.66 1007.85 1007.76 1007.46 1008.13 1008.49 1008.93 1009.40 1010.34 1011.24 1010.93 1011.73 1012.52 1013.26 1013.96 1014.68 1015.24 1015.66 1016.00 1017.21 1017.90 1018.21 1018.78 1019.07 1019.16 1019.82 1019.97 1020.25 1020.34 1020.80 1021.53 1021.42 1021.55 1021.64 1021.96 1022.25 1022.67
1014.75 1014.68 1014.97 1015.16 1015.42 1015.24 1014.02 1013.81 1010.35 1009.31 1008.47 1007.81 1007.14 1007.06 1006.96 1007.15 1007.55 1007.92 1008.60 1009.28 1010.19 1011.34 1011.96 1012.68 1012.73 1012.98 1013.68 1014.59 1014.98 1015.57 1016.12 1016.64 1017.58 1018.18 1018.80 1018.83 1019.08 1019.29 1020.04 1020.92 1020.91 1021.34 1021.72 1021.64 1021.82 1021.82 1022.24 1022.47 1022.86
1014.16 1014.69 1014.86 1015.17 1015.75 1015.69 1014.05 1013.70 1010.44 1009.32 1007.98 1007.22 1006.59 1006.46 1006.49 1006.77 1007.41 1007.60 1008.58 1009.54 1010.43 1010.90 1011.18 1012.79 1013.46 1013.94 1013.94 1014.27 1014.96 1015.51 1016.15 1016.58 1017.68 1018.42 1018.61 1019.40 1018.97 1019.61 1020.34 1020.53 1021.26 1021.49 1021.85 1022.02 1022.05 1022.24 1022.39 1022.78 1023.02
1014.08 1015.27 1016.11 1016.25 1016.51 1015.47 1014.09 1013.60 1010.31 1008.11 1007.28 1006.95 1006.40 1005.87 1005.97 1006.62 1007.15 1007.55 1008.38 1009.37 1010.33 1011.56 1012.32 1011.88 1012.92 1014.31 1015.12 1014.92 1015.28 1015.87 1015.97 1016.43 1016.99 1017.35 1018.16 1018.34 1019.46 1019.78 1020.34 1020.93 1021.58 1021.81 1022.19 1022.23 1022.18 1022.31 1022.71 1022.96 1023.22
1014.32 1014.99 1016.48 1017.03 1016.78 1015.49 1013.75 1012.45 1009.12 1007.49 1007.00 1006.52 1006.31 1005.52 1005.89 1006.24 1007.05 1007.62 1007.96 1008.66 1009.86 1010.77 1011.47 1011.57 1012.44 1013.39 1014.26 1014.97 1015.40 1015.93 1016.13 1016.44 1016.81 1017.96 1018.67 1018.78 1019.65 1019.95 1020.46 1020.92 1021.78 1021.94 1022.18 1022.34 1022.18 1022.35 1022.78 1022.92 1023.13
1014.30 1014.75 1014.87 1015.82 1016.17 1016.09 1013.73 1011.19 1008.58 1007.42 1007.16 1006.82 1006.56 1006.08 1006.35 1006.44 1007.21 1008.00 1008.34 1009.11 1009.74 1010.34 1010.92 1011.73 1012.45 1012.91 1013.47 1013.77 1015.60 1016.20 1016.33 1016.71 1017.12 1018.24 1018.68 1019.13 1019.78 1020.04 1020.75 1021.17 1021.71 1022.40 1022.38 1022.50 1022.36 1022.98 1023.11 1023.07 1023.41
1013.79 1014.38 1015.05 1015.90 1016.27 1015.56 1013.39 1012.00 1009.87 1008.07 1007.66 1007.46 1007.12 1006.85 1006.54 1006.66 1007.26 1008.33 1008.56 1009.29 1009.79 1010.42 1010.98 1011.83 1012.41 1013.22 1013.84 1014.96 1015.50 1015.97 1016.90 1017.38 1017.30 1018.65 1019.22 1019.85 1020.30 1020.51 1020.66 1021.39 1021.95 1022.66 1022.58 1022.48 1022.90 1023.17 1023.27 1023.41 1023.76
1013.97 1014.15 1014.64 1015.05 1015.30 1015.05 1014.01 1011.03 1008.84 1008.34 1008.08 1007.65 1007.45 1007.36 1007.14 1006.90 1007.31 1008.25 1008.92 1009.43 1010.18 1010.68 1011.34 1012.00 1012.64 1013.34 1014.02 1014.98 1015.80 1016.06 1016.88 1017.41 1017.87 1019.02 1019.69 1020.28 1020.34 1020.90 1021.31 1021.62 1022.11 1022.75 1022.65 1022.63 1023.25 1023.53 1023.60 1023.83 1023.75
1012.87 1013.13 1013.59 1014.32 1014.38 1014.26 1013.76 1010.44 1008.32 1008.13 1008.00 1007.91 1007.87 1007.90 1008.03 1007.99 1008.12 1008.52 1009.13 1009.71 1010.51 1011.03 1011.65 1012.24 1012.94 1013.72 1014.63 1015.48 1015.69 1015.80 1017.17 1017.68 1018.68 1019.83 1020.13 1020.23 1020.87 1021.11 1021.47 1021.82 1022.45 1022.54 1022.80 1023.05 1023.31 1023.62 1023.84 1023.89 1023.88
Wind_Speed
8 6 1 4 2 2 6 8 3 6 4 2 3 5 11 3 6 6 6 9 19 17 15 15 20 19 19 19 17 16 15 14 13 13 12 12 11 11 11 11 11 11 11 12 11 11 11 11 11
4 4 4 2 3 6 6 6 7 9 6 3 1 3 3 2 4 11 10 15 18 16 14 13 20 19 19 18 17 16 15 14 13 12 12 11 11 12 12 12 12 12 12 12 12 11 11 11 11
6 2 3 3 4 9 4 5 10 9 10 4 1 5 3 7 9 12 13 19 18 15 12 15 20 19 19 18 18 17 16 14 13 12 12 12 12 12 12 12 12 12 12 12 12 11 11 11 11
2 4 3 2 5 5 5 4 1 4 8 5 4 6 1 2 12 10 18 19 18 13 13 18 19 19 17 18 17 17 16 15 14 13 12 12 12 12 12 12 12 12 12 12 12 11 11 11 11
3 3 1 2 4 6 7 6 6 8 7 1 6 4 2 3 13 22 18 17 19 14 13 13 19 19 18 18 17 17 17 15 14 14 13 13 12 12 12 12 12 11 12 12 12 13 13 12 12
3 3 1 4 4 6 9 6 6 9 9 5 1 7 3 10 20 17 16 16 16 15 13 13 17 19 17 17 17 17 17 16 15 14 14 14 13 12 12 12 11 12 13 14 13 12 12 12 12
4 2 4 3 4 5 6 4 5 9 10 10 5 8 4 12 15 16 14 15 15 14 11 11 11 13 16 15 15 15 16 16 15 15 15 14 13 12 11 11 11 12 12 12 13 12 11 10 11
1 2 3 3 2 7 4 8 7 6 10 4 7 7 7 13 11 19 15 14 14 11 11 10 10 7 7 7 13 14 15 14 15 15 14 11 10 10 10 8 8 8 9 10 11 12 12 11 10
1 0 6 5 3 7 6 8 5 7 7 7 5 5 9 20 19 17 16 14 14 12 9 11 9 6 7 7 8 12 14 13 13 11 12 9 4 5 6 5 7 7 9 10 10 10 10 10 10
0 3 6 6 6 7 7 7 12 8 13 5 1 2 17 19 23 20 18 18 17 13 11 11 9 8 6 7 6 5 6 5 5 5 5 4 5 3 5 5 8 10 11 11 12 12 11 8 4
2 4 5 10 12 10 10 7 7 8 4 4 11 8 16 20 19 20 17 18 15 15 10 11 9 8 7 6 4 3 3 3 4 5 5 4 4 4 3 3 3 4 8 4 6 6 5 6 4
4 8 9 9 5 5 6 5 8 5 5 10 6 6 7 13 15 20 18 17 18 15 14 12 9 7 6 5 4 4 4 3 3 4 6 5 3 4 4 3 4 5 3 5 5 4 4 6 6
5 5 7 9 10 11 7 4 5 10 10 6 5 4 8 8 7 12 16 16 17 16 14 13 11 8 8 8 5 4 4 4 5 5 5 5 5 5 4 4 4 4 3 4 5 5 5 6 6
4 7 9 8 9 8 10 5 3 6 6 4 3 7 8 13 7 5 14 16 17 15 15 13 13 9 8 7 7 5 5 5 5 5 5 6 5 5 5 4 4 4 3 3 4 4 4 4 4
6 7 7 6 7 5 5 12 10 8 4 9 4 9 8 14 9 18 16 18 18 14 16 15 12 11 10 8 6 6 5 6 5 5 6 7 6 6 6 4 4 3 3 5 5 4 4 5 4
2 1 5 5 2 6 3 18 7 2 4 11 2 6 14 13 17 16 12 18 18 18 17 15 12 10 9 8 6 5 5 5 5 5 5 6 6 7 5 5 4 3 4 4 4 4 4 4 4
7 5 4 8 4 3 5 10 5 3 2 8 5 6 8 12 16 14 11 18 19 19 18 14 12 11 9 8 6 6 6 5 4 4 5 6 6 6 6 4 4 4 4 4 3 4 3 3 4
4 4 5 6 4 4 9 16 17 14 6 9 8 5 9 8 14 11 4 13 17 16 17 15 11 11 10 7 6 5 4 3 4 4 4 6 5 6 5 4 5 5 4 4 4 5 4 2 3
5 5 10 8 8 3 8 13 14 14 4 8 8 7 6 12 15 12 7 18 8 12 14 14 13 12 11 7 6 5 5 3 3 3 6 6 5 6 6 4 5 5 5 4 4 2 5 5 5
7 8 9 8 4 6 10 15 15 13 6 9 10 8 8 4 12 15 18 19 17 15 16 15 12 10 7 6 4 4 5 3 4 4 5 6 6 6 6 5 5 5 4 6 5 5 2 3 5
6 6 5 6 7 6 6 10 8 8 5 9 10 8 6 9 14 16 17 17 16 16 16 15 15 14 10 9 8 5 6 4 3 3 4 3 6 6 6 6 5 6 4 4 4 4 5 3 4
4 4 5 6 5 3 4 9 6 11 10 8 10 9 9 7 9 13 12 10 9 10 15 15 16 15 11 10 10 14 9 8 4 5 5 5 7 6 6 5 6 6 3 5 4 4 3 3 3
8 2 5 4 4 4 3 2 9 4 6 8 10 10 10 8 11 15 14 15 16 11 5 3 14 15 13 10 11 9 8 5 6 6 8 8 6 8 5 5 6 6 3 4 5 5 5 3 3
2 4 5 1 1 3 5 5 9 4 6 5 6 8 9 6 8 13 13 15 14 15 15 3 6 1 8 9 9 10 11 10 8 7 7 5 5 5 5 6 6 5 4 4 4 4 6 4 4
4 5 5 6 3 7 3 1 12 8 9 7 9 11 10 9 10 14 17 13 15 18 18 17 9 5 2 4 6 8 10 11 13 12 8 10 5 4 5 5 5 4 4 5 5 5 5 5 4
4 6 5 4 3 7 3 6 9 4 3 2 6 7 7 8 9 8 12 16 16 18 17 17 17 14 10 8 4 4 6 7 7 6 6 6 4 5 6 7 5 6 5 4 5 4 4 4 4
2 4 4 2 1 3 4 9 11 3 1 5 6 4 8 9 9 9 8 8 10 13 15 15 16 15 16 14 8 7 6 8 8 7 8 5 6 5 7 7 7 5 5 5 6 4 4 5 3
4 1 2 3 2 5 6 6 8 8 5 7 4 3 5 9 13 8 9 9 7 9 10 10 10 11 10 9 9 9 8 8 10 8 9 7 6 6 8 7 7 5 5 6 6 4 4 5 3
3 3 3 2 5 4 4 8 7 6 7 6 2 2 6 11 12 11 8 7 7 8 10 11 11 11 11 10 10 11 10 9 9 9 7 6 7 7 7 7 7 5 5 6 5 4 4 3 3
4 7 6 5 5 4 3 11 3 4 4 3 4 5 4 7 9 12 11 11 7 8 8 10 11 12 11 8 9 12 10 10 10 8 6 7 7 6 7 6 6 6 5 4 3 2 2 1 3
Wind_Direction
334 310 21 36 95 162 211 236 262 288 271 265 289 154 164 73 158 197 124 130 133 141 153 156 142 135 135 128 123 119 116 117 114 110 106 101 97 93 88 83 78 75 72 68 64 62 61 59 56
346 326 38 95 154 205 219 234 230 235 244 84 47 85 65 123 89 131 120 146 137 141 150 147 134 138 135 131 127 124 122 119 115 111 107 102 97 91 86 81 77 72 68 67 63 59 56 56 55
311 171 97 159 204 217 209 208 237 273 267 230 194 38 119 152 120 147 133 140 137 141 141 140 138 141 142 135 131 128 125 122 117 112 107 101 94 89 84 80 75 71 66 63 61 59 57 56 54
5 12 6 163 252 276 233 246 310 268 269 205 118 88 47 288 147 134 141 137 134 137 139 140 143 141 137 138 135 131 128 124 120 114 106 98 92 86 83 80 75 69 66 63 60 61 59 56 56
54 64 301 266 254 276 286 287 301 300 297 310 134 177 46 17 123 132 143 141 136 136 141 145 141 133 140 140 137 134 131 128 123 117 109 99 92 88 83 79 74 68 63 61 63 62 58 56 60
15 95 15 247 254 265 292 281 278 266 277 284 346 117 125 139 131 138 144 140 137 138 141 141 137 134 141 141 138 137 133 130 125 119 113 104 96 89 85 78 72 68 68 66 61 53 49 51 53
124 99 219 279 276 301 253 316 239 252 267 261 170 128 126 159 146 135 139 134 136 138 137 129 130 138 138 138 138 139 134 130 128 124 118 110 101 95 91 83 75 68 61 56 52 48 43 43 38
120 166 214 241 254 274 269 339 299 296 278 216 187 166 162 176 149 132 136 134 132 136 128 130 117 124 116 124 132 130 130 131 132 127 123 118 113 105 96 86 68 52 43 39 41 45 52 49 40
43 142 260 250 230 266 340 337 303 280 273 251 179 169 151 153 134 134 136 137 142 141 130 124 125 122 119 117 129 128 135 137 133 130 127 112 102 101 90 72 41 27 30 39 48 58 50 52 33
159 220 219 221 257 282 308 343 306 339 320 335 318 6 146 135 144 149 156 153 158 144 139 143 139 138 138 133 128 131 140 125 131 141 139 124 122 121 84 52 45 47 43 44 46 53 45 52 40
249 228 245 271 271 275 296 310 302 326 311 357 304 161 153 148 156 156 160 156 157 149 147 150 149 149 144 134 140 134 131 132 141 150 152 129 109 81 65 70 51 47 39 34 35 35 33 41 42
234 240 245 269 286 301 304 292 305 262 271 299 268 219 135 152 176 160 159 157 155 157 154 155 154 157 149 138 149 151 150 159 134 150 144 118 100 95 91 78 68 63 39 47 40 38 43 40 45
246 256 263 277 288 287 275 222 247 276 277 342 1 240 164 185 241 171 153 150 156 160 161 166 154 160 164 153 146 152 156 137 136 135 128 120 112 106 105 89 74 64 57 54 44 40 43 40 34
296 286 279 282 282 270 277 246 166 260 293 321 238 236 230 213 189 180 161 153 163 156 160 166 164 161 163 156 151 159 150 138 117 120 129 119 113 114 105 94 78 61 63 56 63 54 46 44 31
275 296 305 255 255 271 275 280 212 231 275 278 237 203 214 229 205 213 183 159 159 160 158 166 168 158 162 161 152 148 153 140 132 131 128 118 114 116 121 110 92 76 60 68 52 41 41 40 15
270 344 330 292 267 259 176 269 94 225 283 289 242 218 217 217 233 208 201 163 160 157 166 163 162 160 158 151 153 145 144 136 134 130 125 121 118 121 117 111 96 102 79 66 57 38 34 22 17
17 304 277 304 229 260 197 290 298 73 74 294 305 264 224 217 213 209 218 174 163 163 163 161 158 154 154 143 136 132 138 130 134 124 127 126 115 120 115 108 103 91 82 75 62 44 58 23 356
292 306 289 268 298 219 259 273 282 279 202 260 284 280 230 201 185 185 288 182 157 168 168 159 161 150 148 135 117 102 100 107 123 130 128 126 117 115 105 94 92 92 73 49 55 72 35 33 339
230 255 253 267 277 298 249 267 280 282 196 253 272 261 251 216 198 173 192 270 160 175 168 159 158 155 146 145 136 121 132 127 100 118 129 118 110 110 111 102 89 80 79 70 53 68 46 13 357
262 263 269 285 294 305 285 277 276 276 234 222 243 245 253 222 169 171 187 199 206 184 175 160 154 149 147 146 122 124 134 121 122 127 121 121 115 113 108 105 93 93 95 65 46 42 49 16 19
278 250 270 259 325 280 294 280 265 268 236 244 239 224 236 208 175 187 182 193 199 185 172 162 153 157 147 139 123 103 97 92 102 102 97 84 90 93 106 109 105 94 81 89 82 67 55 50 6
290 238 278 289 354 260 67 290 259 268 267 229 236 221 235 220 191 183 178 186 147 200 179 160 152 152 146 148 144 154 150 151 168 146 131 106 92 80 89 80 100 90 102 86 73 73 86 88 50
237 273 258 276 270 322 323 82 273 276 288 264 246 237 240 198 170 165 165 150 130 124 65 183 155 152 149 152 157 150 137 109 118 116 117 116 120 110 91 96 83 92 77 80 93 78 68 66 80
285 331 301 209 152 350 242 153 279 253 229 280 244 231 234 173 188 163 140 148 149 145 126 44 63 318 139 144 138 142 142 136 139 154 133 151 115 100 102 101 95 105 101 87 78 79 78 81 88
104 52 333 350 3 234 150 348 249 250 261 236 238 228 200 180 164 160 162 158 161 163 161 151 130 62 331 119 131 156 152 160 162 158 157 132 126 115 116 109 106 87 90 87 91 80 71 59 67
191 150 152 266 269 274 242 234 259 230 283 348 318 237 161 164 180 170 169 169 171 172 167 159 157 155 162 157 157 196 149 154 129 147 133 118 121 120 120 104 102 106 99 87 79 76 76 74 68
158 179 184 203 244 26 261 294 307 344 23 350 359 157 169 160 166 149 131 116 138 160 169 167 165 168 173 164 147 164 163 140 134 118 125 107 119 107 110 112 104 88 87 75 74 64 56 61 45
196 214 64 358 290 287 286 278 243 320 331 311 346 239 197 150 146 152 133 124 130 124 119 134 137 143 139 138 146 148 139 129 108 117 109 113 108 106 108 106 106 100 82 75 70 57 46 50 22
121 261 220 176 167 217 295 264 216 262 298 267 237 207 211 149 140 144 135 120 139 117 130 133 134 135 134 139 143 126 115 106 108 112 117 121 114 117 108 113 104 97 78 69 65 42 46 30 6
192 214 171 147 244 233 167 270 233 239 292 267 198 165 167 157 145 138 142 133 132 127 132 137 129 125 130 136 121 112 110 112 116 121 119 113 110 104 112 106 111 100 87 82 71 21 338 305 337